CAPE
0 0 0 0 0 0 0 0 4 34 5 488 408 250 140 348 278 541 858 1426 1353 1033 803 845 832 838 719 1093 1700 974 539 100 59 11 18 0 0 0 0 0 0 0 0 0 0 16 26 189 550 704 779 698 626 794 1201 1414 1422 1711 1846 1914 1792 1638 1799 1867 1444 1297 1381 1110 967 1262 1132 1154 1110 1168 1148 1037 1354 2058 2149 2352 2937 3360 3400 3555 2358 2367
0 0 0 0 0 0 0 0 0 2 0 435 388 395 295 501 445 794 707 864 980 649 587 576 982 772 948 1471 1433 910 655 278 56 29 12 6 0 0 0 0 0 0 0 0 0 36 33 211 503 537 709 959 719 1074 1576 1606 1673 1702 1690 1924 2058 1849 1881 1876 1441 1584 1354 1268 1103 1116 1158 1064 1182 1130 993 860 1444 1760 2115 2656 2835 3116 3211 3428 3546 3980
0 0 0 0 0 0 0 0 0 0 8 208 437 526 453 588 814 617 715 735 909 834 601 449 639 644 1171 1266 1686 1169 1074 952 1013 1371 554 4 1 0 0 0 0 0 0 0 0 32 36 185 597 916 964 934 857 1291 1611 1720 1747 1661 1684 1902 2129 2076 1966 1967 2396 2326 1476 1211 1144 1014 938 871 1048 1074 1099 587 1248 1861 2318 2292 2912 3274 3261 3562 3207 3651
0 0 0 0 0 0 0 0 0 0 0 11 352 149 171 616 515 496 724 752 811 816 477 363 473 538 953 1410 1490 1352 1704 1550 1431 1894 1312 288 990 3 0 0 0 0 0 0 1 18 34 71 925 1125 1170 1139 1148 1356 1474 1618 1607 1637 1878 1936 2099 2136 2392 2289 2584 2933 1866 1414 1039 1162 826 863 894 1071 1064 1103 1374 1758 1873 2154 3207 3184 3391 3632 2947 3612
0 0 0 0 0 0 0 0 0 0 8 0 207 285 335 604 401 305 758 804 895 580 368 339 546 718 809 1060 839 1258 1848 1816 1477 1300 464 535 842 728 4 0 0 6 1 2 0 8 30 69 938 1170 1241 1203 1322 1477 1539 1663 1849 2097 1910 2002 2039 2179 2479 2381 3112 2712 2313 2573 2059 1493 1030 984 1317 1341 1111 1109 1378 1606 2078 2165 2584 2874 3306 3575 2852 2678
0 0 0 0 0 0 0 0 0 0 0 10 228 634 725 715 563 819 770 776 557 556 694 304 393 573 832 882 727 778 1000 1519 1561 750 844 637 600 604 18 0 0 15 4 0 1 14 41 149 1102 1273 1305 1319 1357 1433 1517 1632 1927 2110 2052 2209 2405 2550 2582 2444 2720 2936 2767 3007 2480 1505 1136 1031 1100 965 971 1084 1305 1634 1940 2068 2371 2602 3017 3232 3156 2976
0 0 0 0 0 0 0 0 0 0 30 0 387 675 728 630 696 947 924 598 475 358 401 622 222 134 531 659 664 784 843 1240 1727 1052 918 742 754 616 54 0 0 6 9 5 14 30 85 458 1154 1151 1218 1332 1430 1410 1337 1460 1836 1950 2119 2335 2545 2734 2369 2441 2980 2701 2832 2876 2711 1902 1575 1370 1471 1140 1275 1207 1048 1410 1641 1854 2309 2353 2733 2950 3022 3156
0 0 0 0 0 0 0 0 3 16 4 84 587 655 567 723 1178 1153 866 447 372 865 670 593 436 159 255 517 614 913 845 1007 1330 1328 1033 652 875 648 79 20 0 1 8 11 30 46 136 787 999 1016 1074 1028 1329 1408 1306 1456 1729 1738 2056 2427 2607 2727 2634 2808 2689 2629 2641 2560 2548 2135 1860 2038 1790 1516 1396 1573 909 1088 1510 1642 2129 2157 2542 2639 2882 2980
0 0 0 0 0 0 0 0 0 6 7 374 602 540 652 974 1022 920 798 519 451 424 265 345 352 66 87 384 636 993 869 996 1172 1124 931 728 704 751 55 76 4 5 3 17 37 79 487 719 915 990 1016 962 1048 1350 1430 1626 1842 1937 2162 2644 2579 2585 2701 2833 2668 2623 2901 2571 2423 2155 1928 2106 1831 1868 1567 2338 1689 1234 2101 1570 1782 2042 2302 2812 3318 3216
0 0 0 0 0 0 0 0 12 3 1 359 507 595 776 1033 924 656 714 480 349 384 123 275 370 34 90 556 514 946 728 730 932 1081 896 774 849 743 100 59 30 15 9 16 38 203 592 584 722 906 947 811 1045 1026 1475 1689 1963 2126 2351 2645 2536 2426 2745 2797 2667 2748 2894 2694 2690 2352 1792 1855 2016 2064 1919 1342 1258 1539 1947 1700 1783 2176 2411 2788 3254 3305
0 0 0 0 0 0 10 11 0 0 15 78 584 467 605 683 992 700 451 326 161 260 300 322 310 108 135 470 474 620 635 701 796 1073 1068 898 937 660 239 58 82 58 41 25 74 333 671 601 800 625 605 735 927 1100 1853 1928 2018 2171 2409 2556 2461 2556 2804 2802 2690 2784 3022 2524 2541 2836 1774 2272 2238 1594 1585 1392 1839 2105 1960 1702 2008 2199 2421 2491 2667 3165
0 0 0 0 4 9 0 8 1 0 19 2 1 0 2 522 354 400 484 296 117 122 338 445 326 222 37 101 431 432 458 590 774 910 1017 958 721 442 476 160 76 76 64 46 54 282 756 702 684 601 534 525 814 1415 2014 2296 2172 2216 2443 2465 2477 2577 2802 2826 2884 3016 3082 2590 3140 2931 2576 2403 1885 2250 2316 1843 2144 1931 2201 1922 2063 2523 2255 2651 2478 2903
0 0 0 0 0 1 4 0 0 0 0 0 2 2 0 10 222 130 328 226 0 262 440 636 170 328 51 387 362 458 438 515 662 777 908 980 609 342 337 311 85 90 75 72 60 325 667 822 798 493 401 206 1443 1666 2245 2486 2291 2290 2435 2564 2511 2612 2804 2809 2908 3070 2911 2642 2826 3022 2911 2787 2237 2203 2273 2207 2178 2132 2153 2236 2202 2511 2235 2872 2572 2782
0 0 1 0 3 0 0 0 0 0 0 0 1 3 0 0 10 6 5 0 146 264 559 474 470 386 216 420 572 471 474 482 585 698 868 901 553 316 304 416 111 127 110 105 81 255 427 568 692 498 446 484 1526 1771 2086 2256 2329 2429 2524 2656 2578 2672 2735 2632 2737 3082 3057 2726 2916 3379 2919 2923 2937 2284 2192 2382 2392 2194 2142 2504 2420 2694 2466 2640 3050 2456
0 0 0 0 0 0 0 0 0 0 0 0 0 0 0 14 8 10 61 20 138 140 311 509 293 438 244 455 705 1110 534 488 644 692 799 806 714 390 498 832 940 115 136 132 83 77 250 432 412 318 815 689 1270 1567 1860 2152 2267 2420 2639 2815 2823 2851 2768 2594 2618 2865 2960 3137 3128 3671 3654 3240 3122 2776 2376 2293 2270 2288 2139 2691 2336 2198 2588 2581 2905 2326
0 0 0 0 0 0 0 0 0 0 0 1 2 0 0 0 20 247 178 165 21 210 268 235 370 564 670 960 1044 794 539 657 762 728 850 1005 1089 789 650 832 884 200 128 154 67 79 316 390 398 652 692 594 833 1235 1482 2025 2214 2315 2670 2853 2944 2998 2836 2710 2628 2617 2958 3185 3278 3472 3552 3325 3365 3514 2813 2535 3226 2048 2063 2178 2340 2276 2355 2342 2286 2767
0 5 2 0 0 0 0 0 0 0 0 3 0 0 0 0 16 200 385 395 82 28 99 530 675 807 855 904 741 887 1026 1138 1162 870 1009 1235 1421 1273 1082 887 713 630 94 123 84 112 405 350 227 688 611 543 579 890 1068 1556 1818 2122 2574 2821 3038 3047 2768 2936 2727 2707 2948 3071 3511 3077 3176 3286 3204 3302 3002 3034 3164 2134 2128 2281 2763 2783 3097 2685 3027 2829
1 4 9 0 0 0 0 0 1 7 9 0 0 0 0 0 32 85 297 206 181 12 259 285 363 501 402 408 711 742 779 876 968 990 1055 1198 1138 1032 1118 937 706 537 251 79 106 194 406 350 373 602 673 664 784 574 1266 1558 1791 2120 2378 2686 2881 2921 2529 2926 2630 2905 2844 2881 3367 3029 2987 3018 2971 2891 2776 2470 2451 2216 2485 2829 3087 2933 2953 2392 3313 2956
0 0 8 1 0 0 0 0 0 0 0 0 1 0 0 0 0 120 109 138 181 84 112 132 294 410 322 464 522 587 399 474 644 788 895 1002 1037 889 831 811 707 702 424 78 123 375 365 394 463 537 788 786 789 872 1338 1605 1957 2103 2204 2473 2604 2771 2524 2720 2612 2721 2844 2860 3124 3023 2643 2762 2584 2460 2375 2260 2516 2391 2656 2629 2821 2624 2923 2559 2517 2695
0 0 1 1 4 0 0 0 0 0 0 0 0 0 0 0 0 10 14 240 102 225 200 245 106 194 227 401 752 596 349 423 615 1304 689 934 880 707 814 803 688 652 351 306 111 395 342 293 296 240 733 945 802 963 1107 1502 1941 1957 2047 2529 2416 2481 2520 2476 2436 2556 2781 2946 2776 2763 2992 2763 2677 2529 1992 2476 2620 2374 2243 2499 2199 2437 2705 2504 2664 2396
19 2 9 3 4 0 0 0 0 0 0 0 0 0 0 0 31 2 14 38 254 151 42 246 318 243 612 852 840 666 598 754 739 1378 1153 1188 1204 1124 967 957 966 621 463 190 191 232 318 308 345 332 278 1008 796 1035 1039 1234 1816 1836 1892 2284 2298 2429 2398 2293 2280 2366 2508 2816 2528 2331 2828 2701 2754 2986 2172 2128 2207 2311 2229 2436 2410 2175 2370 2423 2549 2253
7 8 29 8 0 0 0 0 0 3 0 0 0 0 0 0 0 1 80 21 23 104 96 189 317 299 570 763 966 623 676 903 1246 1432 1250 1273 1248 1238 1149 928 877 763 432 760 68 185 137 213 208 722 479 803 922 962 777 1086 1627 1703 1868 2104 2283 2332 2345 2270 2246 2121 2387 2411 2381 2274 2220 2641 2624 2611 1943 1754 1830 2174 1889 2221 2398 2194 2524 2632 2432 2371
0 10 32 0 0 0 0 0 0 0 0 0 0 0 0 0 0 0 0 10 4 12 216 255 433 520 1097 1153 941 883 732 676 934 1214 1343 1220 1306 1281 1051 1065 972 1028 719 1476 1964 215 119 250 146 586 1073 765 904 810 859 699 982 1469 1748 1881 2127 2114 2054 2138 1887 2110 2130 2205 2097 2280 2140 2305 2363 2326 1983 1620 1951 2178 1924 2004 2196 2591 2174 2218 2577 1974
195 14 9 0 0 0 0 0 0 0 0 0 0 0 0 0 0 7 0 14 0 131 135 109 256 634 1102 927 884 1041 964 744 736 945 1173 1155 1088 1370 1120 875 995 1146 1348 1154 1909 2362 3544 422 266 884 1045 1215 1912 1914 1819 2037 1443 888 1397 1601 1868 1920 1826 1848 1682 1902 1924 2043 1976 1955 1858 1960 2121 2008 1964 1911 1826 1994 1759 1747 2103 2389 2052 1970 1867 2365
5 9 8 2 0 0 0 0 0 0 0 0 0 0 0 0 0 0 27 0 2 116 92 1 205 487 896 1016 862 1105 954 826 815 984 1071 919 1037 1360 1405 840 944 1163 1095 394 1396 2477 2971 1360 492 824 822 928 1505 1042 902 917 1411 1610 683 1108 1592 1463 1593 1480 1634 1632 1728 1746 1612 1684 1764 1680 1947 1812 1909 1869 1834 1992 1634 1637 1796 1993 1883 1696 2099 1848
0 0 1 10 1 3 66 36 0 1 0 0 0 0 0 0 0 0 0 21 0 101 221 236 481 778 834 979 1061 1052 855 902 794 786 1200 922 1005 1183 1318 809 724 1259 982 1032 1206 1874 1938 2546 1982 1490 1499 1612 1741 775 724 914 1502 1671 1384 1521 1010 979 1229 1039 1787 1493 1638 1608 1409 1118 1546 1392 1460 1585 1576 1580 1486 1544 1568 1504 1596 1709 1958 1798 1612 1572
0 0 0 8 6 2 4 8 4 0 0 0 0 0 0 0 0 0 0 48 0 380 490 345 275 693 805 939 934 994 1032 876 712 675 861 848 971 1062 1026 884 1204 1751 1399 1100 789 1133 1170 1791 1476 1595 2009 2209 1991 1630 1050 1228 1432 1283 1215 788 828 1211 880 1183 1530 1429 1631 1182 1850 1184 1002 1124 1104 1108 1314 1114 1248 1422 1631 1534 1418 1689 1698 1672 1449 1418
0 0 1 7 0 0 0 0 4 0 0 0 0 0 0 0 0 0 0 0 285 465 595 993 460 672 513 939 972 761 980 784 704 942 1001 1017 976 919 1004 918 1218 1444 1488 1444 1477 1216 1174 1804 1876 1694 1770 1843 1785 1672 1399 1407 1463 1126 541 722 1429 1694 1643 1459 1274 2067 1770 1435 1990 2076 2262 2239 1290 719 683 792 800 842 1357 1244 1169 1246 1443 1337 1090 1149
7 0 1 7 2 0 0 0 0 0 1 12 21 66 239 196 0 0 1 0 164 338 484 885 523 408 436 696 952 719 846 877 1059 1171 1182 1114 1143 1112 957 894 1358 1346 1276 1214 1396 1194 1133 1802 1592 1353 967 1003 1243 1327 1124 1172 1306 1070 1277 1474 1281 995 1350 1670 1632 1828 2014 1981 1822 1665 1538 1422 1243 1357 1696 2162 1633 568 654 775 784 1077 1095 1104 798 802
0 0 0 0 0 0 0 3 0 11 15 0 6 264 260 259 443 591 654 369 370 346 738 705 863 643 656 720 882 718 675 886 979 1107 1187 1206 1220 1252 1021 943 1162 1454 1275 1218 1309 1380 1217 1388 1492 1619 1177 1138 967 929 996 1165 1155 867 898 978 988 1203 1389 2365 1586 1477 1825 1668 1598 1456 1336 1165 1080 1281 1482 1438 1386 1269 1533 1468 764 780 667 780 806 925
0 5 0 0 0 5 11 8 0 0 0 4 292 445 404 307 690 795 748 794 912 1105 1151 1090 1020 1049 949 870 756 718 838 746 763 973 1204 1177 1163 1135 1210 1253 1155 1151 1316 1301 1196 1302 1321 1128 1198 1329 1760 1296 1107 1202 1283 1328 1160 945 957 1094 1130 1407 1451 1826 1492 1316 1662 1482 1478 1426 1291 1198 1142 1336 1844 1671 1470 1495 1778 1662 1414 1174 868 1044 1191 1216
0 0 0 0 0 0 18 41 8 0 8 14 468 498 472 651 751 742 729 756 957 977 1018 950 978 983 942 1011 990 957 883 832 728 890 937 864 917 860 949 1049 1038 1042 1212 1350 1351 1281 1248 1156 1553 1621 1678 1554 1365 1420 1496 1610 1582 1371 1349 1277 1391 1254 1317 1340 1752 1669 1599 1607 1452 1280 1190 1208 1110 1296 1764 2040 1948 1836 1956 1811 1662 1832 1364 1297 1355 1584
0 0 0 0 0 0 0 0 14 2 1 452 493 414 576 758 913 873 746 725 897 823 829 809 911 1318 1398 1292 1192 1078 977 922 935 1008 873 822 776 960 1142 1128 888 764 718 993 1003 1092 1050 1260 1465 1570 1629 1550 1281 1363 1470 1515 1535 1575 1685 1872 1716 1521 1564 1870 1974 1972 1627 1681 1738 1490 1207 1163 1239 1088 1132 1528 1971 1812 1816 1853 1751 1510 1476 1336 1209 1422
0 0 0 0 0 0 0 0 4 0 117 409 146 261 467 805 899 1002 932 759 617 512 326 884 1084 1238 1409 1272 1196 1143 1038 1007 959 974 883 823 869 925 1005 973 933 896 823 813 918 970 887 888 1248 1269 1505 1323 1059 1038 1224 1392 1491 1592 1759 1866 1505 1398 1452 1679 1745 2034 2200 1880 1803 1728 1317 1346 1536 1356 1160 1535 1767 1769 1753 1787 1632 1451 1218 1310 1469 1510
1 4 1 6 0 0 0 7 0 12 186 178 74 62 130 432 749 726 939 936 814 724 758 874 979 1062 1238 1194 1111 1171 1119 1045 923 883 877 861 880 909 931 948 988 963 910 799 782 725 899 925 975 1099 1285 1204 1147 1046 959 1059 1297 1389 1662 1665 1656 1489 1691 1700 1497 1727 1678 2028 2072 2012 1730 1760 1768 1553 1463 1478 1557 1705 1906 1858 1798 1631 1586 1332 1211 1214
1 8 8 0 0 0 0 0 0 162 48 23 56 23 144 334 456 855 723 856 826 771 894 1064 1081 1221 1184 1135 1121 1114 1070 1017 912 834 760 767 777 800 796 754 846 928 976 923 867 800 902 1044 1166 1030 1104 1141 1098 1194 1160 988 1046 1225 1481 1546 1596 1684 1856 1787 1443 1391 1434 1778 1862 1858 1741 1830 1819 1689 1411 1172 1319 1423 1477 1438 1434 1411 1373 1383 1265 1104
3 8 0 1 8 1 16 12 213 111 220 173 49 20 47 398 541 584 772 730 868 846 1029 1219 1170 1185 1153 1106 1095 1050 976 924 754 702 592 630 596 559 520 482 450 438 533 901 1074 986 957 1051 1221 1078 1019 1014 952 1179 1112 1094 1115 1338 1374 1618 1688 1782 1842 1875 1753 1484 1325 1450 1437 1332 1322 1313 1362 1216 1494 1402 1257 1094 1118 1110 1133 1153 1126 1186 1244 1296
0 0 34 0 23 1 0 4 145 86 69 251 146 49 104 106 429 228 627 461 587 837 842 908 1102 992 997 983 962 892 764 623 527 527 442 452 415 353 256 264 265 324 436 499 616 947 1043 1074 975 821 861 891 986 1035 1104 1072 1016 898 1123 1156 1203 1404 1479 1418 1230 1356 1241 1258 1291 1208 1133 1092 1142 1066 917 1228 1219 1130 1050 989 948 875 828 862 955 944
1 0 123 0 13 1 14 15 87 102 33 36 42 51 31 4 64 116 503 400 435 721 759 776 846 848 939 855 800 615 578 510 489 455 314 293 202 136 133 249 321 360 364 404 478 587 758 911 852 772 724 729 662 711 761 849 843 992 1027 1005 926 882 901 757 713 566 998 1171 1080 1105 1082 970 942 774 563 491 577 571 602 620 560 467 425 493 572 664
0 10 2 0 0 0 1 66 48 250 151 92 27 165 39 38 64 153 200 274 670 525 715 835 799 742 783 884 711 432 533 494 592 375 280 225 124 89 94 253 322 312 324 378 382 429 475 526 592 630 633 634 590 554 545 569 593 620 706 798 807 806 757 650 544 471 346 257 539 641 670 685 305 297 263 298 364 341 371 336 295 295 290 300 326 389
44 100 6 15 2 13 30 141 154 270 284 107 241 218 383 165 99 127 154 344 915 634 496 678 631 515 630 681 353 312 457 591 442 368 313 233 206 185 136 218 201 211 423 355 368 342 430 448 470 493 500 520 526 528 541 552 548 548 515 487 504 467 428 354 313 264 199 131 132 149 181 220 317 373 391 409 352 331 322 305 304 289 271 302 314 314
192 70 60 50 109 150 346 380 308 112 30 220 424 474 534 490 194 417 580 883 778 542 249 361 399 412 520 508 517 487 475 579 293 270 363 333 270 180 133 180 172 173 325 460 437 407 410 445 449 440 414 399 408 441 463 472 486 460 418 376 368 386 339 288 271 251 218 197 34 107 177 235 246 246 293 301 261 275 272 288 335 309 306 308 308 294
247 210 68 360 366 225 140 119 100 10 302 507 512 474 607 554 512 732 728 773 722 589 510 308 173 264 372 438 526 524 432 229 232 213 268 255 224 226 208 196 177 193 281 375 415 464 398 354 353 372 415 412 385 377 332 350 398 396 373 343 368 329 170 269 276 257 219 118 0 95 185 205 231 261 212 177 116 118 89 150 183 189 214 246 229 170
279 203 200 414 420 279 354 235 96 178 626 680 702 807 752 725 634 713 938 792 708 630 631 576 370 608 552 488 498 355 292 179 144 182 277 239 238 216 199 210 194 167 188 225 292 296 310 304 312 346 356 412 386 361 312 218 238 278 324 347 355 290 256 216 187 173 166 96 3 0 0 0 8 54 58 88 42 86 89 103 89 52 33 31 30 20
11 876 761 625 532 480 327 306 365 438 651 707 887 906 795 639 666 861 813 805 750 594 588 537 500 634 500 556 422 389 388 119 132 308 362 255 196 192 162 131 91 79 98 145 166 242 268 284 307 314 333 310 355 368 322 125 194 186 195 101 0 0 0 0 0 0 1 2 10 11 0 2 1 0 0 17 46 45 43 42 57 20 27 63 68 23
701 751 517 504 496 396 339 400 400 570 635 657 661 798 899 964 1000 1044 799 767 709 702 629 582 601 532 594 559 436 292 217 203 170 9 2 199 216 147 32 0 0 61 99 110 127 123 169 255 239 255 260 312 316 220 0 0 0 0 0 0 0 0 0 0 0 0 0 1 0 0 22 31 35 36 17 14 16 14 3 1 44 16 7 8 1 16
628 634 576 434 424 433 305 328 356 520 636 728 728 698 708 835 973 1010 884 811 640 480 472 660 792 634 609 465 456 423 316 197 139 80 191 211 192 134 0 0 0 0 0 0 0 0 56 191 216 207 181 162 173 204 128 0 94 139 92 0 0 0 0 0 0 13 2 0 0 0 0 0 0 0 0 0 0 0 23 5 2 8 24 2 0 0
295 164 311 445 428 480 429 404 430 431 356 387 486 576 616 626 781 1040 834 744 648 587 530 663 729 732 582 553 491 305 238 406 204 53 7 7 0 0 0 0 0 0 0 0 0 0 0 0 0 0 0 37 132 159 128 57 67 78 44 38 0 0 0 0 0 0 0 0 2 1 0 0 0 0 0 0 0 0 0 0 0 0 0 0 0 0
80 129 427 422 421 378 414 436 376 301 250 305 435 459 487 507 716 837 646 624 445 487 554 583 660 689 582 441 409 250 283 86 72 38 41 8 4 0 0 0 0 0 0 0 0 0 3 3 0 0 0 0 106 112 138 53 0 0 0 0 0 0 0 0 0 0 0 0 0 0 0 0 0 0 0 0 0 0 0 0 0 0 0 0 0 0
602 617 285 336 332 294 386 427 497 360 258 246 286 393 436 538 787 896 822 521 567 647 591 520 451 588 665 468 464 499 410 369 313 118 365 387 101 0 0 0 2 21 28 29 2 0 0 0 0 0 0 0 0 0 0 0 0 0 0 0 1 8 5 21 2 0 0 0 0 0 0 0 0 0 0 0 0 0 0 0 0 0 0 0 0 0
856 834 633 286 428 499 639 638 461 421 396 459 480 449 436 544 794 844 797 704 690 684 598 534 494 421 352 391 462 438 453 520 504 460 408 297 190 69 9 18 63 35 34 13 3 0 0 0 0 0 0 0 0 0 0 0 0 0 0 0 0 0 0 0 3 0 0 0 0 18 71 0 0 0 0 0 0 0 0 0 0 0 0 0 0 0
Wind_Speed
nan nan nan nan nan nan nan nan nan nan nan 26 20 16 14 9 7 11 10 12 12 15 14 13 13 10 9 11 17 20 13 11 nan nan nan nan nan nan nan nan nan nan nan nan nan nan nan 12 11 9 8 7 6 5 5 7 8 10 10 9 8 7 7 7 7 8 8 9 10 9 9 11 13 12 12 13 14 14 16 18 20 19 18 15 16 20
nan nan nan nan nan nan nan nan nan nan nan 21 20 19 13 13 10 8 10 17 23 24 18 21 17 12 12 15 19 18 15 11 nan nan nan nan nan nan nan nan nan nan nan nan nan nan nan 11 12 8 6 8 8 5 6 7 8 9 10 9 8 7 7 8 8 9 8 9 10 10 11 11 12 12 13 14 14 15 17 18 19 21 20 19 19 20
nan nan nan nan nan nan nan nan nan nan nan 15 17 19 18 13 15 9 14 22 21 19 19 27 27 18 15 18 17 17 17 18 22 19 16 nan nan nan nan nan nan nan nan nan nan nan nan 13 12 10 6 6 8 7 7 8 8 8 8 8 8 8 8 9 8 7 8 9 10 11 12 11 12 15 16 15 15 15 16 18 20 19 19 18 18 17
nan nan nan nan nan nan nan nan nan nan nan nan 20 18 12 11 15 10 12 15 15 14 14 16 20 23 24 20 17 16 15 17 21 21 19 17 15 nan nan nan nan nan nan nan nan nan nan nan 13 10 7 5 5 4 5 6 7 7 7 8 8 8 7 8 7 7 8 10 13 12 11 11 13 16 15 16 14 15 16 18 18 18 18 17 16 16
nan nan nan nan nan nan nan nan nan nan nan nan 14 21 16 12 11 14 13 17 11 12 15 21 24 22 17 14 15 16 15 18 21 22 20 19 16 15 nan nan nan nan nan nan nan nan nan nan 12 11 8 5 4 5 5 4 5 5 7 8 9 9 7 7 7 7 8 10 11 12 11 12 15 16 15 15 16 16 17 17 17 16 16 16 15 16
nan nan nan nan nan nan nan nan nan nan nan nan 12 24 15 12 14 21 25 22 9 5 4 12 18 15 15 14 12 15 15 16 19 21 19 18 18 18 nan nan nan nan nan nan nan nan nan 12 13 12 10 6 3 3 4 4 4 5 6 6 7 8 7 6 6 6 6 8 10 12 12 12 15 15 16 15 16 17 16 16 15 14 15 14 13 13
nan nan nan nan nan nan nan nan nan nan nan nan 25 25 21 18 17 22 20 17 11 6 3 1 10 14 16 11 12 15 13 13 18 20 20 17 17 16 nan nan nan nan nan nan nan nan nan 12 12 9 8 8 5 2 3 3 3 5 5 5 7 7 7 7 6 4 5 8 10 12 13 14 15 15 19 18 17 15 15 14 12 12 13 13 11 12
nan nan nan nan nan nan nan nan nan nan nan nan 26 26 21 19 20 19 19 12 12 15 13 6 11 15 14 11 14 14 12 11 12 15 18 17 16 15 nan nan nan nan nan nan nan nan 11 12 11 8 7 6 8 5 3 3 4 4 4 5 6 6 6 6 5 5 5 7 9 11 14 16 17 17 18 17 15 15 14 10 9 10 10 11 11 9
nan nan nan nan nan nan nan nan nan nan nan 23 20 19 19 17 17 21 16 13 12 13 9 6 7 nan nan 15 15 13 9 8 6 8 13 17 16 16 nan nan nan nan nan nan nan nan 14 13 11 10 6 5 9 7 4 3 4 2 3 3 4 5 5 5 6 5 5 6 8 10 13 16 18 19 18 18 14 13 11 8 8 9 9 10 9 7
nan nan nan nan nan nan nan nan nan nan nan 15 10 14 16 12 14 19 16 14 9 10 8 4 5 nan nan 13 14 9 6 2 5 8 9 16 17 16 14 nan nan nan nan nan nan 16 16 13 12 10 7 7 8 6 6 5 5 3 1 2 4 4 4 5 6 6 5 5 7 10 12 14 17 17 18 17 14 13 9 7 7 7 7 8 8 7
nan nan nan nan nan nan nan nan nan nan nan nan 7 12 14 12 10 11 16 15 14 12 6 5 8 3 8 5 6 10 4 6 10 10 9 15 21 17 16 nan nan nan nan nan nan 17 17 13 13 12 8 7 8 8 9 6 5 3 2 2 3 3 3 4 4 5 5 4 6 9 10 14 15 15 16 15 14 12 9 6 6 6 6 7 7 7
nan nan nan nan nan nan nan nan nan nan nan nan nan nan nan 12 13 15 18 16 16 12 17 9 9 2 nan 7 2 2 12 12 13 13 14 11 16 18 17 16 nan nan nan nan nan 17 17 14 12 12 11 7 10 11 9 7 5 4 3 2 2 1 2 3 2 3 5 5 5 8 9 12 13 15 15 14 12 11 8 6 5 5 4 6 6 5
nan nan nan nan nan nan nan nan nan nan nan nan nan nan nan nan 11 12 16 13 nan 15 12 15 15 6 nan 9 3 2 3 9 12 14 16 15 14 19 17 16 nan nan nan nan nan 18 15 13 12 11 10 10 13 11 9 7 7 5 4 3 2 1 1 2 1 2 4 5 5 7 8 11 13 15 15 14 13 12 10 8 6 5 3 5 4 4
nan nan nan nan nan nan nan nan nan nan nan nan nan nan nan nan nan nan nan nan 18 12 14 18 14 9 6 7 8 4 7 8 10 12 15 14 12 18 18 18 19 17 17 18 nan 17 14 13 12 11 13 14 14 12 9 8 8 6 4 3 2 1 0 1 1 1 2 3 5 6 7 9 11 12 13 14 13 12 11 9 6 4 3 3 3 2
nan nan nan nan nan nan nan nan nan nan nan nan nan nan nan nan nan nan nan nan 16 13 15 15 12 7 8 6 12 7 6 10 11 13 14 14 11 18 24 23 23 18 18 18 nan nan 16 14 14 13 14 15 15 11 10 8 8 8 6 5 3 2 1 1 1 3 2 2 3 6 7 9 11 12 12 12 12 11 10 9 7 4 3 2 2 1
nan nan nan nan nan nan nan nan nan nan nan nan nan nan nan nan nan 21 11 18 nan 16 19 13 12 11 8 9 11 14 16 14 13 14 16 16 14 20 27 26 26 23 19 18 nan nan 18 17 15 17 15 16 15 11 9 10 9 9 8 6 4 3 2 2 2 2 3 3 3 4 6 7 10 12 13 11 12 10 9 8 8 5 5 3 2 2
nan nan nan nan nan nan nan nan nan nan nan nan nan nan nan nan nan 24 20 21 nan nan nan 16 15 14 11 10 12 16 20 18 13 15 15 17 19 22 27 30 27 25 nan 19 nan 20 20 19 17 17 17 18 15 12 11 11 10 10 9 8 7 6 5 4 3 3 4 4 4 4 5 7 9 10 12 12 13 10 11 10 10 9 8 8 6 5
nan nan nan nan nan nan nan nan nan nan nan nan nan nan nan nan nan nan 19 17 17 nan 16 12 11 10 13 8 10 13 18 14 12 10 15 17 21 23 27 32 30 25 22 nan 20 20 20 20 20 18 18 19 16 16 16 13 12 12 10 9 8 8 6 6 4 5 4 4 5 5 4 6 6 8 10 12 12 13 13 12 13 12 12 11 9 10
nan nan nan nan nan nan nan nan nan nan nan nan nan nan nan nan nan 21 21 17 16 nan 15 15 14 9 9 7 9 8 12 11 12 10 12 14 15 19 27 32 33 30 27 nan 21 21 19 20 21 19 20 19 16 18 18 17 15 13 11 11 9 8 7 7 7 6 6 5 5 5 4 5 6 7 9 10 10 12 13 13 13 13 13 13 12 11
nan nan nan nan nan nan nan nan nan nan nan nan nan nan nan nan nan nan nan 17 21 16 15 12 14 8 8 7 6 7 8 11 13 13 10 9 9 17 28 33 32 31 28 26 24 23 21 20 22 19 21 20 17 19 18 18 17 14 13 12 10 10 9 8 8 7 7 6 5 5 6 6 7 7 8 9 8 9 11 11 11 13 14 12 13 13
nan nan nan nan nan nan nan nan nan nan nan nan nan nan nan nan nan nan nan nan 19 18 nan 15 13 12 11 13 9 7 9 11 12 10 8 5 5 15 28 32 33 32 32 27 26 23 23 21 22 20 22 22 19 21 19 20 18 16 15 13 11 10 10 9 9 9 8 8 7 7 5 6 6 8 9 10 9 8 9 9 11 10 12 12 11 11
nan nan nan nan nan nan nan nan nan nan nan nan nan nan nan nan nan nan nan nan nan 22 nan 18 14 11 5 8 10 14 13 18 10 7 7 5 5 8 18 23 25 29 24 28 nan 27 24 23 22 24 25 22 20 21 19 21 20 16 15 13 13 12 11 10 11 11 11 9 10 9 6 7 7 9 9 10 9 10 8 9 9 9 9 10 9 9
nan nan nan nan nan nan nan nan nan nan nan nan nan nan nan nan nan nan nan nan nan nan 24 19 18 16 13 8 11 11 14 14 10 9 8 7 8 10 12 15 21 27 31 35 34 30 25 24 23 27 27 24 23 22 20 21 20 17 17 15 15 15 13 11 13 13 13 12 12 10 9 10 10 10 10 9 10 9 9 9 9 11 9 8 9 7
36 nan nan nan nan nan nan nan nan nan nan nan nan nan nan nan nan nan nan nan nan 18 25 19 18 16 15 11 10 10 9 9 11 17 14 12 14 15 14 12 14 21 27 35 31 33 32 28 28 31 30 29 29 26 27 28 28 22 20 20 18 15 14 12 15 15 13 14 13 12 12 12 12 11 11 10 10 9 8 11 11 12 10 9 9 8
nan nan nan nan nan nan nan nan nan nan nan nan nan nan nan nan nan nan nan nan nan 16 nan nan 15 17 14 12 11 12 16 14 12 16 19 17 14 13 16 16 16 18 21 21 27 31 36 32 29 31 31 30 30 27 24 28 29 25 25 25 23 18 15 15 19 17 16 15 13 14 14 14 14 14 13 14 14 10 11 13 13 12 10 10 13 11
nan nan nan nan nan nan nan nan nan nan nan nan nan nan nan nan nan nan nan nan nan 13 24 23 19 18 16 10 11 13 18 14 10 14 17 14 14 16 19 19 21 19 18 22 25 29 32 36 33 33 32 31 30 25 23 27 30 31 30 30 32 32 29 26 21 19 18 19 17 17 17 15 16 15 14 13 14 13 14 16 14 13 11 14 12 15
nan nan nan nan nan nan nan nan nan nan nan nan nan nan nan nan nan nan nan nan nan 15 24 17 21 19 16 12 11 11 14 15 12 11 9 9 15 18 18 16 17 19 17 17 21 23 28 33 40 36 34 33 32 29 27 31 32 30 25 28 32 28 25 27 29 20 21 20 21 19 19 17 17 16 15 14 14 14 15 16 16 16 13 13 15 17
nan nan nan nan nan nan nan nan nan nan nan nan nan nan nan nan nan nan nan nan 20 26 19 17 22 25 14 19 17 14 13 14 12 11 10 9 11 11 10 12 15 19 23 22 22 21 23 26 30 35 33 36 36 36 36 35 34 30 29 29 33 31 30 30 29 23 22 22 23 23 23 23 21 18 18 16 15 18 17 17 18 17 17 20 21 14
nan nan nan nan nan nan nan nan nan nan nan nan nan nan 28 30 nan nan nan nan 16 23 18 17 19 23 16 17 20 19 20 17 14 12 10 9 13 14 14 13 12 13 18 20 21 23 23 23 23 28 30 35 39 40 37 34 32 31 32 32 33 32 32 31 30 24 25 28 28 27 27 27 27 28 29 28 25 24 25 23 20 19 19 23 23 17
nan nan nan nan nan nan nan nan nan nan nan nan nan 34 34 44 51 40 30 30 25 20 25 26 20 22 17 15 20 21 22 21 17 12 11 13 13 16 18 17 16 12 10 12 17 20 24 26 26 27 26 32 37 37 38 36 35 34 34 32 30 29 27 27 28 22 21 26 26 27 27 28 28 29 30 29 27 28 29 29 29 29 28 27 25 25
nan nan nan nan nan nan nan nan nan nan nan nan 37 39 38 33 36 39 41 34 30 28 29 27 28 26 21 20 21 24 24 22 19 15 14 15 16 16 16 16 16 14 10 8 13 16 18 23 23 28 31 31 33 35 36 37 37 35 32 31 31 30 28 27 26 19 18 23 25 26 27 26 27 30 31 28 27 29 30 30 29 29 28 28 29 28
nan nan nan nan nan nan nan nan nan nan nan nan 30 36 31 30 34 39 35 30 25 26 29 30 30 28 29 28 24 24 25 23 20 17 17 18 18 17 15 15 14 14 13 12 10 12 15 14 17 25 29 28 27 28 30 33 36 34 30 31 31 30 30 30 29 23 21 24 25 26 28 27 26 29 29 29 30 31 30 31 31 31 31 32 32 30
nan nan nan nan nan nan nan nan nan nan nan 31 30 28 30 31 29 33 34 34 35 33 33 31 28 28 32 30 25 20 22 24 21 18 19 22 20 19 20 18 17 15 16 16 16 15 12 12 15 20 24 25 25 24 23 26 33 34 32 32 31 31 31 29 25 21 25 29 29 29 29 29 31 31 31 31 31 31 34 33 33 33 33 34 31 32
nan nan nan nan nan nan nan nan nan nan 37 25 19 30 37 35 32 35 35 34 32 33 28 29 29 28 27 26 23 21 23 24 27 27 25 24 26 26 24 21 21 21 21 20 20 21 19 17 17 18 18 20 23 24 24 26 27 29 31 31 30 32 32 27 23 21 27 32 32 31 30 30 33 33 32 33 35 34 35 35 35 35 34 33 33 34
nan nan nan nan nan nan nan nan nan nan 34 28 nan nan 37 36 34 40 39 39 38 35 37 36 34 26 18 21 25 26 27 27 28 30 29 26 25 25 26 23 22 21 20 19 20 22 23 23 21 20 20 20 22 23 25 26 24 24 26 27 30 30 28 25 22 24 31 35 34 33 32 32 35 36 36 37 37 36 35 35 35 35 34 34 34 34
nan nan nan nan nan nan nan nan nan 38 nan nan nan nan 39 38 39 35 41 42 43 38 34 37 32 32 32 34 33 27 27 28 28 28 28 27 27 27 27 25 23 22 22 21 21 21 23 23 22 21 21 21 23 25 24 24 23 24 22 22 23 24 23 22 24 29 33 36 36 36 36 35 36 38 39 39 38 37 37 36 35 36 35 35 36 36
nan nan nan nan nan nan nan nan 37 37 39 43 nan nan nan 33 33 37 36 37 41 44 39 34 35 33 34 36 36 33 30 28 28 27 27 29 30 30 30 29 27 26 26 24 24 24 24 23 23 22 22 23 24 26 26 24 24 25 23 21 19 20 21 20 22 23 27 31 35 38 39 39 39 40 42 40 40 40 40 39 39 38 37 39 40 41
nan nan nan nan nan nan nan nan 33 nan nan 43 41 nan 37 36 32 33 35 37 43 44 46 40 36 37 36 35 34 33 33 33 30 28 31 33 32 32 33 33 30 29 28 28 27 27 26 27 27 26 26 26 27 26 25 25 25 25 25 23 22 23 23 22 22 19 21 24 28 33 37 40 40 42 42 42 43 43 42 42 41 41 40 41 42 43
nan nan 21 nan nan nan nan nan nan 30 nan nan nan nan nan nan nan 31 35 40 41 46 45 43 43 40 36 33 32 30 31 36 33 32 32 35 35 33 34 34 33 31 31 32 31 31 31 30 31 31 31 31 30 27 25 25 25 26 25 23 24 26 27 26 27 26 26 24 23 24 27 30 33 36 38 40 45 45 44 42 42 43 43 42 41 40
nan nan nan nan nan nan nan nan nan 24 25 nan nan 36 nan nan nan 32 32 33 38 41 41 43 44 42 38 37 35 37 35 34 34 35 37 37 35 nan nan 33 32 33 34 35 36 34 34 33 33 34 34 33 32 30 28 27 28 28 27 26 26 28 29 29 30 31 32 32 29 27 25 24 28 28 28 30 36 41 43 42 44 46 46 45 43 42
nan 18 nan nan nan nan nan 26 26 25 23 24 26 29 35 35 nan 34 32 30 33 38 43 44 42 39 38 38 34 32 29 31 34 33 40 38 35 33 32 32 33 33 35 36 36 34 34 34 34 35 35 33 34 34 32 31 33 32 30 30 31 31 31 31 31 32 34 35 36 35 32 30 31 32 31 28 28 29 32 37 42 44 45 47 48 47
25 nan nan nan 25 25 25 27 29 28 nan 24 21 28 32 30 32 32 33 31 32 35 38 40 39 37 37 41 37 34 33 37 36 29 36 36 35 31 32 32 31 32 31 31 34 35 37 38 37 35 35 36 38 38 37 36 37 36 35 34 34 32 31 32 33 33 34 37 nan 37 37 37 36 37 36 36 34 30 28 27 28 28 30 35 41 46
21 22 nan 21 18 22 25 29 30 nan 29 32 23 23 32 28 25 23 26 34 35 34 38 38 36 33 36 39 37 37 37 37 35 33 32 32 33 32 31 30 29 29 30 31 31 29 31 33 36 38 38 39 39 38 38 39 40 38 37 37 35 33 34 33 32 32 32 33 nan nan 34 34 36 35 34 35 35 35 nan 28 26 24 23 26 29 32
19 20 20 19 18 19 23 25 nan 22 26 31 29 25 21 21 19 20 21 26 30 34 35 36 36 36 36 35 33 32 31 32 35 36 34 34 36 35 33 31 32 31 29 28 28 29 33 34 35 37 37 37 36 36 36 38 39 37 37 35 33 34 34 34 32 31 31 nan nan nan nan nan nan nan nan nan nan nan nan 30 nan nan nan nan nan nan
nan 19 18 21 20 21 20 23 27 29 27 27 28 25 22 21 22 23 23 24 28 32 34 36 35 35 33 33 32 31 32 32 35 35 36 34 33 32 31 29 nan nan nan 34 34 33 32 32 32 33 35 36 36 35 34 32 33 33 34 32 nan nan nan nan nan nan nan nan nan nan nan nan nan nan nan nan nan nan nan nan nan nan nan nan nan nan
16 20 20 23 24 26 27 27 28 31 30 28 28 27 26 25 24 26 27 26 28 30 33 34 33 34 33 33 36 35 35 32 32 nan nan 32 30 28 nan nan nan nan nan 34 34 33 32 32 32 33 33 32 32 33 nan nan nan nan nan nan nan nan nan nan nan nan nan nan nan nan nan nan nan nan nan nan nan nan nan nan nan nan nan nan nan nan
12 12 15 18 14 19 20 21 29 30 29 29 28 27 28 28 28 30 29 28 28 30 30 30 32 32 32 33 37 39 40 37 34 nan 31 30 31 33 nan nan nan nan nan nan nan nan nan 30 30 30 30 32 30 30 30 nan nan 31 nan nan nan nan nan nan nan nan nan nan nan nan nan nan nan nan nan nan nan nan nan nan nan nan nan nan nan nan
11 14 18 16 18 21 19 22 24 27 29 31 29 27 29 28 28 31 29 27 27 28 30 26 28 34 33 34 35 38 38 37 35 nan nan nan nan nan nan nan nan nan nan nan nan nan nan nan nan nan nan nan 30 29 29 nan nan nan nan nan nan nan nan nan nan nan nan nan nan nan nan nan nan nan nan nan nan nan nan nan nan nan nan nan nan nan
nan 8 12 12 16 18 19 20 22 23 25 28 30 29 27 27 29 32 34 31 28 31 31 30 29 28 30 30 32 33 33 nan nan nan nan nan nan nan nan nan nan nan nan nan nan nan nan nan nan nan nan nan 31 32 32 nan nan nan nan nan nan nan nan nan nan nan nan nan nan nan nan nan nan nan nan nan nan nan nan nan nan nan nan nan nan nan
11 10 10 13 14 11 11 13 14 19 20 22 26 28 28 27 26 27 31 35 32 26 25 31 30 28 29 29 28 27 27 25 22 22 21 22 24 nan nan nan nan nan nan nan nan nan nan nan nan nan nan nan nan nan nan nan nan nan nan nan nan nan nan nan nan nan nan nan nan nan nan nan nan nan nan nan nan nan nan nan nan nan nan nan nan nan
9 6 7 8 10 8 10 14 18 20 19 19 21 25 28 25 23 23 25 29 30 27 25 27 27 27 29 29 26 28 28 26 25 25 28 27 25 nan nan nan nan nan nan nan nan nan nan nan nan nan nan nan nan nan nan nan nan nan nan nan nan nan nan nan nan nan nan nan nan nan nan nan nan nan nan nan nan nan nan nan nan nan nan nan nan nan
Wind_Direction
nan nan nan nan nan nan nan nan nan nan nan 258 261 262 265 255 223 204 196 221 233 220 211 220 229 222 215 231 208 194 199 213 nan nan nan nan nan nan nan nan nan nan nan nan nan nan nan 267 276 284 293 309 322 349 347 352 10 25 24 20 30 57 71 66 54 53 52 45 45 58 70 82 86 89 93 89 99 104 104 106 109 111 107 95 71 68
nan nan nan nan nan nan nan nan nan nan nan 267 271 260 268 263 242 230 216 220 209 203 211 212 224 214 218 216 203 200 206 209 nan nan nan nan nan nan nan nan nan nan nan nan nan nan nan 267 282 272 282 312 323 345 342 356 10 25 21 17 27 50 71 73 57 55 54 58 49 64 86 97 97 99 100 100 104 101 104 107 106 107 106 101 99 97
nan nan nan nan nan nan nan nan nan nan nan 260 261 249 249 236 236 216 227 218 221 212 206 206 198 202 212 208 207 214 209 204 206 211 217 nan nan nan nan nan nan nan nan nan nan nan nan 276 276 267 272 289 311 328 346 353 2 15 22 28 33 46 70 79 73 59 50 55 52 85 104 110 107 107 108 112 112 113 112 106 108 107 106 101 94 91
nan nan nan nan nan nan nan nan nan nan nan nan 250 251 245 263 267 256 240 262 230 228 233 228 220 200 200 205 212 220 218 208 200 205 209 212 206 nan nan nan nan nan nan nan nan nan nan nan 265 267 270 280 294 321 346 353 355 15 27 32 34 39 69 89 88 84 55 48 64 94 108 116 110 110 113 123 124 121 116 110 112 110 105 102 97 89
nan nan nan nan nan nan nan nan nan nan nan nan 275 257 252 284 263 265 286 258 245 216 235 229 209 211 219 211 209 217 218 210 203 202 206 196 201 198 nan nan nan nan nan nan nan nan nan nan 266 271 272 282 294 320 343 358 3 25 16 29 34 40 55 78 92 83 70 63 83 117 127 123 127 133 132 132 126 117 114 113 113 106 103 99 97 97
nan nan nan nan nan nan nan nan nan nan nan nan 266 286 288 296 278 246 281 275 240 245 209 256 216 201 218 214 210 221 218 212 210 206 206 203 197 204 nan nan nan nan nan nan nan nan nan 247 254 272 282 286 276 311 340 351 4 3 21 28 43 53 50 63 82 85 78 82 99 125 131 128 129 130 130 126 119 118 113 108 107 103 102 98 98 98
nan nan nan nan nan nan nan nan nan nan nan nan 220 259 269 261 266 274 279 267 244 274 336 205 228 209 221 216 214 221 218 215 215 206 207 209 205 208 nan nan nan nan nan nan nan nan nan 252 261 262 274 287 293 304 328 330 331 1 12 27 40 53 56 65 86 74 75 88 111 126 131 133 132 130 129 128 125 121 112 109 105 94 95 95 94 91
nan nan nan nan nan nan nan nan nan nan nan nan 244 257 276 268 276 287 288 263 237 237 255 285 229 230 209 195 213 227 225 223 219 207 208 212 214 211 nan nan nan nan nan nan nan nan 247 252 262 263 258 267 290 300 298 289 308 358 13 25 36 59 53 65 74 87 77 79 107 130 138 140 140 136 131 131 125 118 120 111 100 93 95 88 93 87
nan nan nan nan nan nan nan nan nan nan nan 229 247 279 293 298 290 283 276 258 262 273 262 292 257 nan nan 209 240 245 239 233 242 240 217 216 220 213 nan nan nan nan nan nan nan nan 242 246 251 249 250 247 273 283 281 273 300 330 15 14 38 47 49 52 61 80 94 89 103 129 139 143 140 141 135 138 136 124 126 113 105 100 92 94 96 88
nan nan nan nan nan nan nan nan nan nan nan 235 253 300 300 287 286 287 253 257 259 238 262 325 331 nan nan 226 250 245 244 253 289 285 247 219 223 219 222 nan nan nan nan nan nan 242 241 235 240 253 244 239 256 266 257 261 279 303 341 4 23 44 46 51 59 77 99 95 110 133 144 142 141 145 145 146 144 140 139 127 110 112 103 100 112 100
nan nan nan nan nan nan nan nan nan nan nan nan 274 324 300 276 258 244 240 243 231 215 219 313 329 271 220 246 284 286 347 326 276 270 265 228 218 219 219 nan nan nan nan nan nan 247 244 243 224 235 256 234 253 251 260 252 269 289 298 335 19 34 46 48 55 87 103 109 121 136 143 149 152 151 152 153 149 149 153 141 125 118 106 107 101 104
nan nan nan nan nan nan nan nan nan nan nan nan nan nan nan 252 232 225 222 221 216 222 203 249 283 263 nan 194 239 26 231 268 290 305 310 275 232 222 221 217 nan nan nan nan nan 248 247 248 231 226 235 238 251 262 260 248 248 264 265 305 355 69 47 61 58 75 102 123 140 146 157 162 161 161 161 161 159 158 161 154 145 133 119 115 94 101
nan nan nan nan nan nan nan nan nan nan nan nan nan nan nan nan 256 220 234 199 nan 219 216 251 282 209 nan 199 204 348 294 277 296 293 306 306 257 224 224 219 nan nan nan nan nan 243 248 249 235 237 237 224 261 261 258 255 249 242 255 286 315 69 42 65 87 51 97 129 148 156 167 171 170 174 175 176 175 170 173 172 172 166 126 114 100 87
nan nan nan nan nan nan nan nan nan nan nan nan nan nan nan nan nan nan nan nan 211 219 235 257 258 246 205 178 236 316 346 298 300 289 290 303 273 231 222 222 221 222 232 232 nan 236 247 252 234 231 231 236 257 263 258 250 239 230 231 262 289 85 210 136 128 119 123 130 149 169 177 175 184 187 187 188 188 183 181 185 191 187 160 129 124 86
nan nan nan nan nan nan nan nan nan nan nan nan nan nan nan nan nan nan nan nan 226 229 244 248 267 255 244 215 204 200 295 279 284 282 277 287 265 223 218 220 217 228 225 233 nan nan 242 251 244 235 236 245 252 259 259 245 239 234 228 241 254 229 202 174 168 184 183 174 156 177 190 188 193 201 204 201 200 201 195 193 209 209 204 193 156 323
nan nan nan nan nan nan nan nan nan nan nan nan nan nan nan nan nan 220 225 228 nan 239 247 254 266 266 273 233 212 234 266 270 279 280 268 274 261 224 217 217 212 215 224 225 nan nan 238 244 244 237 244 247 244 253 246 254 249 241 236 236 241 247 245 220 200 193 190 197 189 192 196 200 202 203 207 211 211 214 219 214 229 236 244 257 241 248
nan nan nan nan nan nan nan nan nan nan nan nan nan nan nan nan nan 229 230 234 nan nan nan 256 254 261 258 247 220 247 253 250 259 289 281 265 255 235 220 216 213 212 nan 224 nan 231 237 242 235 243 244 249 240 235 245 249 249 253 246 239 236 228 221 213 212 210 197 213 210 220 209 205 212 210 214 217 215 229 230 233 238 246 251 264 260 268
nan nan nan nan nan nan nan nan nan nan nan nan nan nan nan nan nan nan 233 230 233 nan 234 240 267 260 273 259 245 240 258 264 268 297 296 267 246 238 224 215 210 212 214 nan 224 229 240 240 234 241 245 249 239 228 241 249 242 247 248 244 242 236 240 216 225 208 213 213 218 225 236 215 222 211 222 224 219 226 231 232 239 246 250 256 253 267
nan nan nan nan nan nan nan nan nan nan nan nan nan nan nan nan nan 218 235 238 237 nan 239 234 234 244 272 272 265 251 266 279 295 295 297 283 252 236 224 211 204 207 207 nan 227 230 237 242 236 241 248 251 244 231 240 238 241 243 239 239 241 243 245 243 233 219 214 219 212 225 241 231 232 222 226 231 232 229 238 242 245 246 254 260 258 265
nan nan nan nan nan nan nan nan nan nan nan nan nan nan nan nan nan nan nan 233 241 234 232 235 243 229 262 256 285 267 269 282 278 279 293 297 268 235 221 211 203 206 208 214 228 225 233 239 238 243 246 255 248 238 247 242 240 249 241 238 236 232 231 238 240 235 229 230 220 224 223 225 234 233 239 248 245 246 242 249 251 247 264 265 268 271
nan nan nan nan nan nan nan nan nan nan nan nan nan nan nan nan nan nan nan nan 242 247 nan 236 226 223 227 204 228 248 254 277 274 277 286 302 257 228 220 213 207 206 202 214 226 230 229 236 236 243 240 249 243 236 243 242 244 243 239 239 241 242 232 244 236 247 230 230 223 240 228 235 234 234 251 255 251 247 249 254 249 256 258 261 268 269
nan nan nan nan nan nan nan nan nan nan nan nan nan nan nan nan nan nan nan nan nan 243 nan 234 227 227 211 261 240 257 233 239 237 308 302 288 269 234 223 224 223 214 202 207 nan 226 230 232 235 236 235 243 247 236 247 239 246 246 247 244 243 238 229 236 230 243 236 228 229 245 238 236 235 232 243 252 251 247 251 254 250 257 255 257 271 272
nan nan nan nan nan nan nan nan nan nan nan nan nan nan nan nan nan nan nan nan nan nan 248 229 239 227 240 249 278 301 316 324 333 299 266 244 237 227 227 229 227 218 210 208 213 219 228 236 236 237 239 244 244 234 239 239 239 246 252 255 244 242 233 235 233 239 232 230 229 242 242 240 234 237 245 246 247 248 253 255 261 261 262 258 262 269
181 nan nan nan nan nan nan nan nan nan nan nan nan nan nan nan nan nan nan nan nan 259 243 235 242 247 237 249 273 270 280 278 245 231 227 221 219 216 223 233 230 216 208 209 217 223 216 227 226 233 240 237 233 231 228 225 224 228 244 243 243 254 239 242 236 245 240 231 226 238 243 241 244 243 241 250 246 252 251 256 260 261 264 260 250 257
nan nan nan nan nan nan nan nan nan nan nan nan nan nan nan nan nan nan nan nan nan 256 nan nan 256 257 253 259 276 274 271 278 288 260 246 240 232 226 220 229 226 210 211 214 207 217 214 218 234 234 237 237 235 231 225 235 226 224 241 235 227 230 248 243 237 248 247 241 235 230 237 237 246 247 235 231 244 244 243 253 250 258 261 260 254 243
nan nan nan nan nan nan nan nan nan nan nan nan nan nan nan nan nan nan nan nan nan 270 276 258 252 254 251 243 283 280 274 274 276 264 244 255 262 239 221 209 207 209 210 213 208 215 220 212 218 236 233 234 235 234 224 232 234 221 225 235 234 230 213 213 226 251 245 242 243 232 236 235 237 247 251 244 245 249 243 250 249 251 246 251 263 252
nan nan nan nan nan nan nan nan nan nan nan nan nan nan nan nan nan nan nan nan nan 260 270 265 279 276 271 261 266 283 288 282 275 276 273 256 245 243 239 233 223 210 213 226 223 219 225 217 211 210 232 233 232 230 230 231 232 232 225 235 242 238 238 234 212 232 248 247 242 243 239 241 238 235 248 253 252 258 254 254 256 253 250 252 250 263
nan nan nan nan nan nan nan nan nan nan nan nan nan nan nan nan nan nan nan nan 269 254 249 253 283 286 293 283 268 271 282 281 275 280 274 251 256 255 239 231 230 216 214 213 216 225 233 223 211 205 217 234 230 226 225 222 224 229 233 233 238 235 234 230 227 206 244 246 241 241 238 237 238 239 247 253 252 248 259 260 258 256 253 259 255 240
nan nan nan nan nan nan nan nan nan nan nan nan nan nan 202 182 nan nan nan nan 261 260 277 282 283 282 293 291 281 278 282 280 288 292 285 264 243 247 255 253 247 234 221 216 212 215 229 229 216 216 212 232 235 231 228 225 226 228 234 237 239 238 231 226 226 204 232 240 238 235 234 236 239 238 235 232 232 237 239 240 246 252 254 246 236 247
nan nan nan nan nan nan nan nan nan nan nan nan nan 191 209 204 192 197 210 220 212 241 266 281 271 273 282 279 277 273 271 270 269 269 277 284 271 263 265 265 262 259 249 230 215 214 214 217 210 217 226 232 240 237 231 226 225 226 231 233 237 241 238 232 222 208 220 239 239 238 239 240 241 238 236 234 237 241 242 244 245 245 244 248 255 244
nan nan nan nan nan nan nan nan nan nan nan nan 191 199 205 208 213 204 209 217 228 233 250 259 264 262 252 248 259 268 266 263 262 264 272 273 274 271 271 271 263 260 259 252 229 208 209 219 222 218 218 229 239 241 237 230 227 226 224 225 230 234 233 223 225 227 232 240 237 240 239 242 246 247 244 242 241 242 245 247 246 247 247 248 246 243
nan nan nan nan nan nan nan nan nan nan nan nan 210 210 202 213 218 215 218 208 215 237 238 243 248 250 249 254 256 260 264 267 268 267 267 265 266 267 274 279 274 267 270 282 267 214 211 209 224 227 224 226 230 237 240 237 230 228 228 226 225 232 233 226 221 226 240 240 240 240 243 244 245 249 252 251 247 244 246 247 248 245 247 248 246 246
nan nan nan nan nan nan nan nan nan nan nan 219 212 205 198 207 216 221 223 221 219 225 226 229 232 238 246 252 257 253 253 254 257 258 260 262 265 265 261 260 261 268 274 277 276 263 252 243 236 231 226 226 231 233 233 236 230 226 227 226 227 238 243 243 242 237 239 241 239 239 243 246 247 246 249 251 251 250 248 247 246 245 246 247 248 248
nan nan nan nan nan nan nan nan nan nan 205 212 209 201 199 205 208 215 215 222 223 230 231 235 226 233 242 243 242 244 244 242 246 241 244 256 261 259 260 262 261 259 253 252 261 261 258 244 239 236 234 236 236 235 234 231 227 223 224 233 237 239 240 242 245 248 248 248 246 244 243 245 247 248 250 253 253 251 251 250 249 248 245 245 246 248
nan nan nan nan nan nan nan nan nan nan 206 202 nan nan 195 201 212 214 212 212 222 238 249 247 250 255 247 240 240 244 247 249 247 247 244 242 247 253 262 266 267 265 262 257 250 250 250 249 248 249 243 241 241 237 236 233 232 230 226 227 233 233 235 236 241 243 248 253 254 252 249 248 250 250 248 249 251 251 252 253 252 249 247 246 247 249
nan nan nan nan nan nan nan nan nan 206 nan nan nan nan 194 197 201 209 211 209 210 221 241 249 251 254 255 254 253 252 253 250 246 245 247 245 244 248 253 258 263 262 260 255 253 247 249 251 251 249 248 244 246 243 237 239 238 240 235 226 229 229 234 240 240 239 243 247 247 248 251 252 253 253 252 250 250 251 253 254 253 252 250 251 251 250
nan nan nan nan nan nan nan nan 213 213 219 215 nan nan nan 206 208 212 214 209 213 213 219 242 249 252 254 255 258 258 258 256 251 248 249 248 246 247 254 253 250 250 252 252 251 248 246 250 252 251 249 246 244 248 249 248 248 250 249 247 239 237 236 238 237 239 244 244 244 244 246 247 250 251 252 253 253 250 250 252 253 253 253 253 253 255
nan nan nan nan nan nan nan nan 212 nan nan 219 219 nan 211 213 223 220 219 217 217 218 217 220 235 239 250 254 255 255 254 254 252 250 251 251 250 251 253 253 250 246 248 250 250 249 246 246 248 248 249 250 249 249 251 254 257 259 258 256 255 253 249 245 248 252 250 244 243 245 246 245 242 243 249 254 256 255 253 252 250 251 253 255 255 254
nan nan 247 nan nan nan nan nan nan 217 nan nan nan nan nan nan nan 230 226 220 219 229 228 231 236 232 225 228 237 236 239 243 241 247 251 254 253 252 251 250 251 249 249 251 252 251 248 244 246 249 250 250 252 251 254 258 261 262 261 259 259 259 259 254 251 256 260 257 253 249 247 247 247 245 243 248 252 252 253 251 251 252 251 250 251 253
nan nan nan nan nan nan nan nan nan 216 217 nan nan 215 nan nan nan 229 229 223 219 229 235 241 243 237 234 243 248 248 241 242 240 241 249 250 250 nan nan 253 253 252 250 250 251 253 252 248 246 247 248 252 255 260 260 261 263 266 266 264 263 263 262 260 257 256 258 260 258 256 257 259 255 247 250 255 254 252 251 250 250 251 251 247 248 254
nan 223 nan nan nan nan nan 228 227 221 216 208 210 214 217 217 nan 230 234 230 228 231 233 235 236 244 248 243 244 254 256 253 245 232 244 246 247 247 247 249 250 251 252 254 254 252 249 249 248 248 250 252 255 259 261 263 265 266 266 267 267 265 266 267 266 265 266 266 264 263 263 261 259 260 261 264 265 261 255 249 247 248 250 249 249 253
223 nan nan nan 212 212 219 232 229 228 nan 207 210 222 214 227 230 231 232 233 235 235 236 238 239 233 232 239 243 251 256 257 258 250 244 238 237 240 247 250 251 252 252 248 247 246 247 248 250 254 255 252 253 256 257 260 264 267 267 267 268 270 270 270 271 271 272 273 nan 271 271 269 267 269 271 271 270 267 263 257 249 249 253 254 253 253
227 231 nan 226 216 219 223 232 230 nan 220 217 213 229 218 231 229 229 235 238 237 236 236 237 239 240 242 240 243 250 252 251 255 258 255 246 240 237 240 246 248 251 251 250 249 248 246 245 247 248 250 252 252 251 253 256 259 261 264 266 266 266 267 269 271 272 272 273 nan nan 277 275 275 276 277 277 276 276 nan 273 271 268 266 263 259 256
215 226 229 230 223 227 228 233 nan 233 228 224 231 244 237 236 228 226 239 244 235 232 233 235 234 236 245 252 252 245 241 250 252 254 253 252 249 244 240 242 247 251 253 252 247 242 241 241 242 244 246 249 250 250 250 253 256 258 260 261 263 264 266 267 268 268 269 nan nan nan nan nan nan nan nan nan nan nan nan 275 nan nan nan nan nan nan
nan 226 230 240 223 232 235 235 234 241 239 235 237 246 250 240 227 226 235 239 240 232 229 232 232 234 238 244 242 239 239 244 255 257 258 259 260 254 246 246 nan nan nan 244 244 243 240 241 240 242 243 244 248 250 251 252 256 256 255 254 nan nan nan nan nan nan nan nan nan nan nan nan nan nan nan nan nan nan nan nan nan nan nan nan nan nan
223 239 240 239 239 243 236 233 237 239 239 237 236 237 241 243 237 228 230 238 231 231 231 232 234 241 239 239 244 237 241 246 250 nan nan 260 264 257 nan nan nan nan nan 240 238 239 241 241 241 242 245 245 246 249 nan nan nan nan nan nan nan nan nan nan nan nan nan nan nan nan nan nan nan nan nan nan nan nan nan nan nan nan nan nan nan nan
239 237 235 240 256 245 241 234 240 242 242 238 235 233 235 236 235 233 228 230 236 234 230 227 233 240 241 240 242 244 244 244 248 nan 251 254 254 256 nan nan nan nan nan nan nan nan nan 243 244 244 244 245 243 244 246 nan nan 249 nan nan nan nan nan nan nan nan nan nan nan nan nan nan nan nan nan nan nan nan nan nan nan nan nan nan nan nan
242 243 250 247 248 252 259 253 250 249 246 241 238 235 232 232 238 244 240 228 232 240 238 229 237 237 239 243 243 243 240 239 243 nan nan nan nan nan nan nan nan nan nan nan nan nan nan nan nan nan nan nan 246 244 244 nan nan nan nan nan nan nan nan nan nan nan nan nan nan nan nan nan nan nan nan nan nan nan nan nan nan nan nan nan nan nan
nan 235 248 262 261 261 258 252 254 251 247 244 245 244 244 242 244 251 254 245 230 230 237 242 243 247 245 246 249 256 257 nan nan nan nan nan nan nan nan nan nan nan nan nan nan nan nan nan nan nan nan nan 247 244 242 nan nan nan nan nan nan nan nan nan nan nan nan nan nan nan nan nan nan nan nan nan nan nan nan nan nan nan nan nan nan nan
230 225 251 262 269 266 256 266 254 248 244 240 239 242 243 241 244 249 256 258 251 240 238 245 244 245 249 252 253 248 253 258 255 251 238 239 248 nan nan nan nan nan nan nan nan nan nan nan nan nan nan nan nan nan nan nan nan nan nan nan nan nan nan nan nan nan nan nan nan nan nan nan nan nan nan nan nan nan nan nan nan nan nan nan nan nan
263 237 237 252 266 265 254 260 260 260 252 246 244 239 239 239 240 243 249 257 258 257 256 256 254 251 254 253 252 254 251 248 247 246 250 257 261 nan nan nan nan nan nan nan nan nan nan nan nan nan nan nan nan nan nan nan nan nan nan nan nan nan nan nan nan nan nan nan nan nan nan nan nan nan nan nan nan nan nan nan nan nan nan nan nan nan